Location: Newark
(44.8699°N, 13.8438°E)
Time: 04:48:54
(UTC+00:00)

Envisat - Pass Details

Date: 25 September 2019
Orbit: 764 x 766 km, 98.1° (Epoch: 18 October)

Event Time Altitude Azimuth Distance (km) Brightness Sun altitude
Rises 17:56:47 0° 191° (SSW) 3,219 6.3 -11.3°
Reaches altitude 10° 17:59:18 10° 201° (SSW) 2,297 5.6 -11.8°
Maximum altitude 18:03:49 32° 265° (W) 1,294 5.0 -12.6°
Drops below altitude 10° 18:08:22 10° 328° (NNW) 2,312 6.1 -13.3°
Sets 18:10:55 0° 338° (NNW) 3,243 6.8 -13.8°
